Lid_Strength_Index
4 5 5 5 10 11 14 12 9 9 8 6 6 7 7 7 7 9 2 1 0 0 -0 -1 -1 -1 -1 -1 -1 -1 -2 -2 -2 -2 -2 -2 -1 -1 -1 -1 -2 -2 -2 -2 -2 -2 -1 -1 -1
5 4 5 7 13 16 14 10 10 8 6 6 6 7 7 7 5 4 2 1 -0 -0 -0 -1 -0 -1 -1 -1 -1 -1 -1 -2 -2 -2 -2 -2 -2 -2 -2 -2 -2 -2 -2 -2 -2 -2 -2 -1 -1
4 4 6 9 13 16 15 10 9 7 7 7 7 6 7 7 6 4 2 0 -0 -0 -1 -1 -0 -1 -1 -1 -1 -1 -1 -2 -2 -2 -2 -2 -2 -2 -2 -2 -2 -2 -2 -2 -2 -2 -2 -2 -1
6 5 7 12 14 12 11 9 8 8 7 7 7 7 6 6 6 3 2 0 0 0 -1 -0 -0 -1 -1 -1 -1 -1 -1 -1 -2 -2 -2 -2 -2 -2 -2 -2 -1 -1 -2 -2 -2 -2 -2 -1 -1
8 8 11 13 13 11 9 7 7 8 7 7 7 8 7 4 3 4 3 0 1 0 -0 -1 -0 -1 -1 -1 -1 -1 -1 -1 -1 -2 -2 -2 -2 -2 -1 -1 -1 -1 -1 -2 -2 -2 -1 -2 -1
10 9 13 15 13 10 8 7 7 7 7 6 7 7 6 3 5 5 4 1 0 0 -0 -1 1 0 -0 -1 -1 -1 -0 -1 -1 -1 -1 -1 -1 -1 -1 -1 -1 -2 -2 -2 -2 -2 -2 -2 -1
12 12 13 12 12 11 9 7 8 8 7 7 5 8 5 5 6 4 3 1 0 -0 -0 -0 -1 -0 2 1 0 -0 0 -1 -1 -1 -1 -1 -1 -1 -1 -1 -1 -1 -1 -1 -1 -1 -1 -1 -1
10 10 12 12 12 12 9 8 8 8 8 6 5 8 7 5 6 4 3 2 1 0 0 -0 -0 -1 -0 -1 2 1 0 0 -0 0 0 1 1 0 0 0 -1 -1 -1 -1 -1 -1 -1 -1 -0
10 14 16 14 13 12 10 12 10 9 9 10 8 8 7 9 7 7 8 7 3 1 0 0 0 -0 -0 -0 0 2 2 1 1 1 2 2 -1 -1 -0 1 0 -1 -1 -1 -1 -1 -1 0 2
14 16 15 13 13 13 13 13 12 12 12 12 11 10 10 10 11 11 10 9 6 4 1 0 -0 0 -0 -0 0 -0 -0 -1 -1 -1 -1 -1 -1 -1 -0 1 2 1 1 -0 -1 -0 1 4 4
14 17 14 14 14 15 14 14 13 14 14 13 12 10 10 11 12 12 11 9 7 6 4 1 0 -0 -0 0 0 0 -0 -0 -0 -1 -1 -1 -1 -0 -1 -1 -1 -1 2 0 0 2 5 5 6
16 15 15 14 14 15 15 14 15 14 14 12 12 11 11 11 12 12 12 12 11 11 10 5 1 0 0 -0 1 -0 0 -0 0 1 -0 -0 -0 0 0 0 -0 0 1 2 3 4 5 6 7
15 15 14 13 14 14 14 15 14 14 12 12 13 12 12 12 11 10 12 12 12 12 11 8 2 0 0 0 0 0 0 0 -0 -0 -0 -0 0 1 0 0 0 1 3 3 5 6 6 7 9
15 14 14 14 15 14 16 15 14 13 13 14 13 13 13 12 12 11 10 10 11 11 11 10 5 1 0 0 0 0 0 -0 -0 -0 -0 -0 0 1 1 1 2 2 2 3 5 5 6 7 9
14 16 15 16 16 16 15 15 16 15 14 14 15 14 13 12 12 12 11 11 10 10 10 11 10 4 1 0 0 0 0 0 0 -0 0 -0 0 1 1 1 2 3 3 5 7 6 7 9 10
18 18 20 17 17 16 17 19 16 15 16 16 15 15 14 13 12 14 14 13 13 12 12 11 11 10 4 1 0 0 0 0 0 0 0 0 1 1 1 1 2 3 5 5 6 8 8 9 10
21 24 22 21 18 19 19 22 17 16 17 17 17 16 16 17 16 15 14 14 14 14 14 13 11 11 11 6 1 0 0 0 0 0 0 1 1 1 2 2 2 4 5 6 7 8 9 9 10
25 25 23 24 21 20 21 21 19 16 17 19 18 18 17 18 17 16 16 15 15 14 15 15 14 13 12 10 4 0 1 0 0 0 0 0 1 2 3 3 3 4 5 6 7 9 11 10 10
23 24 25 23 20 21 22 22 18 17 17 18 17 18 18 18 17 17 17 17 16 16 16 15 15 15 14 13 11 2 2 1 1 0 0 0 1 2 3 4 5 5 5 6 7 9 10 12 10
22 24 25 22 19 20 21 21 18 17 17 17 17 18 18 18 17 18 18 17 18 17 17 16 16 15 14 13 12 10 7 1 1 0 0 0 1 2 3 4 6 5 5 6 8 9 11 12 11
22 23 23 23 20 20 21 21 18 16 16 16 16 16 17 18 18 18 19 19 18 18 18 17 17 15 15 14 13 12 10 1 2 1 1 1 2 2 2 4 6 5 5 7 8 8 9 11 12
23 20 21 22 22 25 21 26 21 18 18 17 17 17 17 17 17 18 19 19 19 18 18 17 17 16 15 14 14 14 13 12 3 2 1 1 2 3 3 4 5 6 6 6 7 7 8 9 12
21 19 20 21 22 23 22 25 21 18 20 19 17 17 17 17 17 18 18 18 19 19 18 18 17 17 16 15 14 13 12 10 6 1 2 1 2 3 3 3 4 5 6 6 7 8 9 9 10
18 20 20 21 22 28 22 23 24 21 20 18 17 16 16 16 16 16 15 16 17 18 19 19 18 18 16 15 14 14 13 11 9 2 2 2 2 2 3 4 4 5 5 6 7 8 8 9 10
20 24 28 29 30 27 22 24 23 18 17 17 17 16 15 14 14 14 14 14 14 15 16 18 19 19 17 16 15 13 12 11 10 5 2 2 3 3 3 4 5 5 5 6 7 8 8 9 11
22 25 29 32 29 28 22 24 21 17 16 16 16 16 15 14 13 13 13 14 14 14 14 15 17 18 17 17 15 14 13 12 11 9 2 3 3 3 3 4 4 5 6 6 7 8 8 9 10
24 27 23 32 27 29 25 23 19 16 17 17 16 16 16 15 13 13 13 13 14 14 14 15 16 16 17 17 16 15 14 13 11 11 9 4 3 4 4 4 4 5 6 7 7 8 8 9 10
23 21 28 28 37 35 27 26 24 20 18 17 17 17 16 15 13 13 13 13 13 14 14 15 15 16 16 16 16 15 15 14 12 11 11 11 8 7 6 6 5 6 6 7 7 8 8 9 9
24 25 25 25 27 31 31 27 24 20 18 18 17 16 16 15 15 13 13 13 13 14 14 15 16 16 16 16 16 16 15 15 13 13 13 12 11 9 8 7 7 7 7 7 8 8 9 9 9
23 26 25 30 30 27 27 28 18 18 17 17 16 15 15 15 15 14 14 14 14 15 15 15 16 16 16 16 16 15 15 15 15 14 14 13 12 11 10 9 8 8 8 8 8 9 9 9 9